Stuttgart, AR

1:33 PM CDT on May 24, 2018 (GMT -0500)
Stuttgart Municipal

Weather History for KSGT - November, 2013

Change the Weather History Date:

Wednesday, November 20, 2013

  Actual Average Record
Temperature  
Mean Temperature 48 °F -  
Max Temperature 62 °F 57 °F 73 °F (2003)
Min Temperature 35 °F 41 °F 30 °F (2006)
Degree Days  
Heating Degree Days 16    
Moisture  
Dew Point 33 °F    
Average Humidity 60    
Maximum Humidity 81    
Minimum Humidity 32    
Precipitation  
Precipitation 0.00 in - - ()
Sea Level Pressure  
Sea Level Pressure 30.13 in    
Wind  
Wind Speed 6 mph (ESE)    
Max Wind Speed 12 mph    
Max Gust Speed -    
Visibility 10 miles    
Events      
Averages and records for this station are not official NWS values.
T = Trace of Precipitation, MM = Missing Value Source: NWS Daily Summary

Daily Weather History Graph

Daily Weather History Graph

Search for Another Location

Airport or City:

Astronomy

Nov. 20, 2013 Rise Set
Actual Time 6:45 AM CST 4:58 PM CST
Civil Twilight 6:17 AM CST 5:25 PM CST
Nautical Twilight 5:47 AM CST 5:56 PM CST
Astronomical Twilight 5:17 AM CST 6:26 PM CST
Moon 7:41 PM CST (11/20) 9:10 AM CST (11/20)
Length of Visible Light 11h 07m
Length of Day
10h 13m
Waning Gibbous, 91% of the Moon is Illuminated
Nov 20
Waning Gibbous
Nov 25
Last Quarter
Dec 2
New
Dec 9
First Quarter
Dec 17
Full

Hourly Weather History & Observations

Time (CST) Temp. Windchill Dew Point Humidity Pressure Visibility Wind Dir Wind Speed Gust Speed Precip Events Conditions
12:15 AM 37.4 °F 34.9 °F 30.2 °F 75% 30.18 in 10.0 mi NW 3.5 mph - N/A   Unknown
12:35 AM 37.4 °F 33.8 °F 30.2 °F 75% 30.18 in 10.0 mi NNE 4.6 mph - N/A   Unknown
12:55 AM 37.4 °F 32.8 °F 30.2 °F 75% 30.18 in 10.0 mi NNE 5.8 mph - N/A   Unknown
1:15 AM 37.4 °F 32.8 °F 30.2 °F 75% 30.17 in 10.0 mi North 5.8 mph - N/A   Unknown
1:35 AM 35.6 °F 29.2 °F 30.2 °F 81% 30.18 in 10.0 mi North 8.1 mph - N/A   Unknown
1:55 AM 35.6 °F 30.7 °F 30.2 °F 81% 30.18 in 10.0 mi North 5.8 mph - N/A   Unknown
2:15 AM 35.6 °F 30.7 °F 30.2 °F 81% 30.17 in 10.0 mi North 5.8 mph - N/A   Unknown
2:35 AM 37.4 °F 32.1 °F 30.2 °F 75% 30.17 in 10.0 mi NE 6.9 mph - N/A   Unknown
2:55 AM 35.6 °F 31.7 °F 28.4 °F 75% 30.18 in 10.0 mi North 4.6 mph - N/A   Unknown
3:15 AM 35.6 °F 31.7 °F 30.2 °F 81% 30.17 in 10.0 mi North 4.6 mph - N/A   Unknown
3:35 AM 35.6 °F 30.7 °F 30.2 °F 81% 30.17 in 10.0 mi North 5.8 mph - N/A   Unknown
3:55 AM 35.6 °F 29.9 °F 30.2 °F 81% 30.17 in 10.0 mi North 6.9 mph - N/A   Unknown
4:15 AM 35.6 °F 31.7 °F 30.2 °F 81% 30.17 in 10.0 mi North 4.6 mph - N/A   Unknown
4:35 AM 35.6 °F 30.7 °F 30.2 °F 81% 30.16 in 10.0 mi NE 5.8 mph - N/A   Unknown
4:55 AM 35.6 °F 30.7 °F 30.2 °F 81% 30.16 in 10.0 mi NE 5.8 mph - N/A   Unknown
5:15 AM 37.4 °F 31.4 °F 30.2 °F 75% 30.16 in 10.0 mi NE 8.1 mph - N/A   Unknown
5:35 AM 37.4 °F 33.8 °F 30.2 °F 75% 30.17 in 10.0 mi NE 4.6 mph - N/A   Unknown
5:55 AM 35.6 °F 32.8 °F 30.2 °F 81% 30.17 in 10.0 mi NE 3.5 mph - N/A   Unknown
6:15 AM 35.6 °F 31.7 °F 30.2 °F 81% 30.17 in 10.0 mi NE 4.6 mph - N/A   Unknown
6:35 AM 35.6 °F 31.7 °F 30.2 °F 81% 30.17 in 10.0 mi ENE 4.6 mph - N/A   Unknown
6:55 AM 35.6 °F 32.8 °F 30.2 °F 81% 30.17 in 10.0 mi ENE 3.5 mph - N/A   Unknown
7:15 AM 37.4 °F 32.1 °F 30.2 °F 75% 30.16 in 10.0 mi East 6.9 mph - N/A   Unknown
7:35 AM 39.2 °F 35.0 °F 30.2 °F 70% 30.17 in 10.0 mi East 5.8 mph - N/A   Unknown
7:55 AM 39.2 °F 33.6 °F 30.2 °F 70% 30.17 in 10.0 mi East 8.1 mph - N/A   Unknown
8:15 AM 41.0 °F 35.8 °F 30.2 °F 65% 30.18 in 10.0 mi East 8.1 mph - N/A   Unknown
8:35 AM 42.8 °F 40.1 °F 30.2 °F 61% 30.18 in 10.0 mi ENE 4.6 mph - N/A   Unknown
8:55 AM 44.6 °F 40.2 °F 32.0 °F 61% 30.18 in 10.0 mi East 8.1 mph - N/A   Unknown
9:15 AM 44.6 °F 39.7 °F 32.0 °F 61% 30.18 in 10.0 mi ESE 9.2 mph - N/A   Unknown
9:35 AM 46.4 °F 41.1 °F 30.2 °F 53% 30.17 in 10.0 mi SE 11.5 mph - N/A   Unknown
9:55 AM 48.2 °F - 30.2 °F 50% 30.18 in 10.0 mi SSE 9.2 mph - N/A   Unknown
10:15 AM 50.0 °F - 32.0 °F 50% 30.17 in 10.0 mi SSE 9.2 mph - N/A   Unknown
10:35 AM 51.8 °F - 33.8 °F 50% 30.16 in 10.0 mi SSE 9.2 mph - N/A   Unknown
10:55 AM 53.6 °F - 32.0 °F 44% 30.15 in 10.0 mi South 6.9 mph - N/A   Unknown
11:15 AM 53.6 °F - 33.8 °F 47% 30.14 in 10.0 mi SSE 6.9 mph - N/A   Unknown
11:35 AM 55.4 °F - 33.8 °F 44% 30.13 in 10.0 mi SSE 8.1 mph - N/A   Unknown
11:55 AM 55.4 °F - 33.8 °F 44% 30.12 in 10.0 mi SE 8.1 mph - N/A   Unknown
12:15 PM 55.4 °F - 32.0 °F 41% 30.11 in 10.0 mi SE 8.1 mph - N/A   Unknown
12:35 PM 57.2 °F - 33.8 °F 41% 30.10 in 8.0 mi SE 8.1 mph - N/A   Unknown
12:55 PM 57.2 °F - 33.8 °F 41% 30.09 in 9.0 mi SE 8.1 mph - N/A   Unknown
1:15 PM 57.2 °F - 32.0 °F 38% 30.09 in 6.0 mi ESE 9.2 mph - N/A   Unknown
1:35 PM 60.8 °F - 32.0 °F 34% 30.09 in 10.0 mi SSE 8.1 mph - N/A   Unknown
1:55 PM 60.8 °F - 32.0 °F 34% 30.07 in 3.0 mi SSE 6.9 mph - N/A   Unknown
2:15 PM 60.8 °F - 32.0 °F 34% 30.07 in 10.0 mi SSE 9.2 mph - N/A   Unknown
2:35 PM 60.8 °F - 32.0 °F 34% 30.06 in 10.0 mi SE 11.5 mph - N/A   Unknown
2:55 PM 60.8 °F - 32.0 °F 34% 30.06 in 10.0 mi SSE 10.4 mph - N/A   Unknown
3:15 PM 62.6 °F - 32.0 °F 32% 30.06 in 10.0 mi SSE 10.4 mph - N/A   Unknown
3:35 PM 60.8 °F - 32.0 °F 34% 30.06 in 10.0 mi SSE 11.5 mph - N/A   Unknown
3:55 PM 60.8 °F - 32.0 °F 34% 30.07 in 10.0 mi SSE 9.2 mph - N/A   Unknown
4:15 PM 60.8 °F - 33.8 °F 36% 30.07 in 10.0 mi SSE 8.1 mph - N/A   Unknown
4:35 PM 59.0 °F - 33.8 °F 39% 30.07 in 10.0 mi SSE 6.9 mph - N/A   Unknown
4:55 PM 57.2 °F - 35.6 °F 44% 30.07 in 10.0 mi SE 5.8 mph - N/A   Unknown
5:15 PM 53.6 °F - 35.6 °F 51% 30.06 in 10.0 mi ESE 8.1 mph - N/A   Unknown
5:35 PM 53.6 °F - 37.4 °F 54% 30.06 in 10.0 mi ESE 6.9 mph - N/A   Unknown
5:55 PM 53.6 °F - 37.4 °F 54% 30.07 in 10.0 mi ESE 6.9 mph - N/A   Unknown
6:15 PM 53.6 °F - 37.4 °F 54% 30.07 in 10.0 mi ESE 8.1 mph - N/A   Unknown
6:35 PM 51.8 °F - 37.4 °F 58% 30.08 in 10.0 mi SE 6.9 mph - N/A   Unknown
6:55 PM 51.8 °F - 37.4 °F 58% 30.09 in 10.0 mi SE 5.8 mph - N/A   Unknown
7:15 PM 51.8 °F - 37.4 °F 58% 30.10 in 10.0 mi SE 6.9 mph - N/A   Unknown
7:35 PM 51.8 °F - 37.4 °F 58% 30.10 in 10.0 mi SE 6.9 mph - N/A   Unknown
7:55 PM 51.8 °F - 37.4 °F 58% 30.10 in 10.0 mi SE 6.9 mph - N/A   Unknown
8:15 PM 51.8 °F - 37.4 °F 58% 30.10 in 10.0 mi SE 6.9 mph - N/A   Unknown
8:35 PM 50.0 °F - 37.4 °F 62% 30.10 in 10.0 mi ESE 5.8 mph - N/A   Unknown
8:55 PM 48.2 °F - 37.4 °F 66% 30.10 in 10.0 mi SE 3.5 mph - N/A   Unknown
9:15 PM 48.2 °F - 37.4 °F 66% 30.11 in 10.0 mi SE 3.5 mph - N/A   Unknown
9:35 PM 48.2 °F - 37.4 °F 66% 30.11 in 10.0 mi South 3.5 mph - N/A   Unknown
9:55 PM 48.2 °F - 37.4 °F 66% 30.11 in 10.0 mi SSE 4.6 mph - N/A   Unknown
10:15 PM 48.2 °F - 37.4 °F 66% 30.10 in 10.0 mi SE 5.8 mph - N/A   Unknown
10:35 PM 48.2 °F - 37.4 °F 66% 30.11 in 10.0 mi SE 6.9 mph - N/A   Unknown
10:55 PM 48.2 °F - 37.4 °F 66% 30.11 in 10.0 mi SE 6.9 mph - N/A   Unknown
11:15 PM 50.0 °F - 37.4 °F 62% 30.11 in 10.0 mi ESE 6.9 mph - N/A   Unknown
11:35 PM 48.2 °F - 37.4 °F 66% 30.11 in 10.0 mi ESE 6.9 mph - N/A   Unknown
11:55 PM 50.0 °F - 37.4 °F 62% 30.11 in 10.0 mi ESE 8.1 mph - N/A   Unknown